Location: Roland
(31.1349°N, 85.4372°W)
Time: 05:02:08
(UTC+00:00)

Courier 1B - Pass Details

Date: 21 April 2021
Orbit: 962 x 1209 km, 28.3° (Epoch: 07 May)

Event Time Altitude Azimuth Distance (km) Brightness Sun altitude
Rises 23:38:59 0° 268° (W) 3,636 12.5 6.6°
Reaches altitude 10° 23:42:18 10° 252° (WSW) 2,701 11.1 5.9°
Maximum altitude 23:46:54 20° 207° (SSW) 2,073 9.5 4.9°
Drops below altitude 10° 23:51:38 10° 161° (SSE) 2,774 9.6 3.9°
Sets 23:55:07 0° 146° (SE) 3,766 10.1 3.2°
